Lid_Strength_Index
4 4 4 4 4 4 5 4 4 4 4 5 5 5 5 4 5 6 11 8 7 -2 -1 2 1 2 3 5 4 4 11 13 12 11 10 7 8 5 4 6 5 4 5 4 2
5 4 4 4 4 5 5 4 4 4 4 5 5 5 4 4 6 9 5 0 -2 -2 2 3 4 4 6 6 6 8 12 11 8 8 9 7 7 6 7 7 7 6 4 3 3
5 5 5 5 4 4 5 4 5 5 4 5 5 5 4 4 8 7 -0 -1 -2 -1 1 1 3 4 7 6 7 8 11 8 7 7 6 7 7 6 7 9 7 7 6 4 4
6 5 5 5 5 5 4 4 4 4 4 5 4 4 4 5 10 5 -2 -1 -1 1 2 3 4 6 9 9 7 10 8 7 7 6 7 8 7 7 6 7 5 5 4 4 4
5 6 6 6 6 5 5 4 4 4 4 4 4 3 7 11 10 1 -2 -1 1 3 3 4 6 7 9 8 8 9 8 7 6 6 6 6 7 7 7 5 4 4 4 5 4
5 5 5 5 5 6 6 5 5 5 4 4 4 3 8 12 4 -0 0 2 4 4 3 3 5 5 7 8 8 7 7 7 6 7 6 7 7 7 6 5 5 5 5 5 4
5 5 5 5 5 5 6 6 5 5 5 4 3 4 9 10 2 2 4 5 5 5 4 3 3 5 6 8 5 6 9 8 7 7 7 6 9 8 6 5 6 6 5 5 4
5 6 5 5 5 5 5 6 6 5 4 4 3 6 12 7 2 3 4 6 5 4 3 3 2 5 6 5 7 9 9 12 8 7 7 7 12 8 6 6 6 6 5 5 4
5 6 5 5 5 5 6 5 5 4 4 3 8 10 11 4 6 6 5 5 5 5 5 2 3 6 6 10 11 10 13 12 10 7 7 8 11 7 6 6 6 6 5 5 5
6 6 6 6 6 6 6 5 4 4 4 3 5 11 9 8 7 6 5 3 4 4 5 5 6 9 9 11 16 14 13 12 11 9 8 9 10 8 7 7 7 6 6 6 6
5 6 6 6 6 6 8 9 10 10 8 11 12 10 9 8 5 6 4 4 4 5 9 7 10 12 10 9 9 10 12 12 10 8 9 10 10 9 7 7 7 7 7 6 6
5 6 6 6 6 7 10 11 10 9 12 9 9 9 9 9 10 10 3 6 7 9 8 9 11 9 8 8 9 10 12 12 10 8 10 10 11 9 8 7 7 7 6 6 6
6 6 6 6 6 9 11 12 9 10 13 10 9 9 8 8 9 9 4 5 8 9 9 11 9 8 9 11 11 11 12 12 11 10 10 11 12 11 8 7 6 6 6 6 6
6 6 7 7 9 10 10 8 8 10 14 12 11 9 9 8 10 8 5 6 7 9 9 9 8 9 11 11 11 13 8 9 11 12 15 11 17 12 10 9 8 7 6 6 6
6 6 7 7 11 10 9 8 9 10 19 10 11 8 10 9 9 9 5 6 8 8 8 9 10 11 12 11 10 12 11 11 10 13 14 14 16 13 11 11 9 7 7 6 5
6 7 7 8 11 9 8 9 10 14 18 11 10 11 11 11 10 9 7 6 6 8 9 9 8 10 10 10 10 9 10 12 13 13 16 14 15 14 12 11 9 7 6 6 5
6 7 8 8 12 9 9 10 14 16 11 11 13 12 13 12 11 10 10 10 10 12 12 10 9 9 9 11 11 11 14 16 16 16 16 15 15 13 9 8 8 8 7 6 5
6 6 8 8 9 9 10 11 16 13 12 9 10 13 13 12 12 11 12 13 12 12 13 14 13 10 8 10 12 13 14 16 18 17 16 14 16 12 9 7 7 6 6 5 5
7 10 10 9 7 9 10 14 14 13 9 10 11 13 14 13 12 12 13 13 11 11 13 14 13 9 9 10 11 14 14 13 15 16 16 14 12 9 9 9 8 7 7 6 6
10 9 8 7 7 9 11 13 12 10 9 10 13 12 14 12 13 14 13 12 11 10 11 12 14 11 9 10 11 12 11 14 15 17 19 15 15 14 11 10 9 8 8 7 5
10 9 7 7 9 10 13 13 11 8 8 11 13 14 13 13 12 14 13 12 11 11 11 13 13 11 11 12 13 13 14 14 14 15 16 17 14 10 10 10 9 8 7 7 6
11 10 6 10 13 15 13 11 9 10 10 10 11 12 13 12 13 13 14 11 10 11 13 12 14 14 12 11 11 12 13 14 15 16 17 16 14 10 9 9 8 8 7 6 6
11 10 6 9 14 15 14 11 11 11 11 11 11 10 11 13 14 12 10 8 8 11 13 12 15 16 14 13 14 13 13 15 15 16 16 16 14 9 9 9 8 8 7 6 6
9 9 9 10 12 11 11 11 10 8 10 10 10 11 13 14 13 13 11 9 8 8 5 10 16 15 15 14 13 12 11 12 13 15 15 15 13 11 10 10 8 7 7 7 6
9 11 10 11 10 10 10 10 10 9 8 9 11 11 11 14 13 12 11 10 9 6 9 12 14 16 14 12 12 11 11 11 12 13 13 12 12 10 10 9 8 7 7 7 6
9 10 10 12 11 10 11 11 10 9 9 9 11 9 11 12 11 13 11 11 11 10 11 11 13 12 14 10 10 11 10 10 11 11 11 12 11 9 8 8 8 8 7 7 7
10 9 9 11 10 11 11 11 10 10 8 8 9 10 10 10 8 9 10 10 9 11 11 10 11 13 14 12 12 13 11 10 10 10 11 13 10 9 9 8 8 8 7 7 6